Regional Weather Roundup
Issued by NWS Charleston, SC

Current Version | Previous Version | Text Only | Print | Product List | Glossary Off
Versions: 1 2 3 4 5 6 7 8 9 10 11 12 13 14 15 16 17 18 19 20 21 22 23 24 25 26 27 28 29 30 31 32 33 34 35 36 37 38 39 40 41 42 43 44 45 46 47 48 49 50

000
ASUS42 KCHS 301728
RWRCHS

REGIONAL WEATHER ROUNDUP
NATIONAL WEATHER SERVICE CHARLESTON SC
100 PM EDT THU JUN 30 2016

NOTE: "FAIR" INDICATES FEW OR NO CLOUDS BELOW 12,000 FEET WITH NO
SIGNIFICANT WEATHER AND/OR OBSTRUCTIONS TO VISIBILITY.

NOT ALL STATIONS ARE QUALITY CONTROLLED. USE DATA WITH CAUTION...
ESPECIALLY DEWPOINT OBSERVATIONS.

SCZ027-030-031-034>040-042>050-301800-
...SOUTHEAST SOUTH CAROLINA...

CITY           SKY/WX    TMP DP  RH WIND       PRES   REMARKS
N CHARLESTON   CLOUDY    88  70  55 SW6       30.01S HX  93
WATERFRONT PRK   N/A     83  74  74 SE7       30.00R HX  90
MOUNT PLEASANT FAIR      84  75  74 SE8       30.02S HX  92
JOHNS ISLAND   FAIR      84  75  74 S9        30.02S HX  92
PINOPOLIS        N/A     90  73  58 CALM      29.93F HX  98
MONCKS CORNER  FAIR      84  68  58 E5        30.01S
SUMMERVILLE    FAIR      90  72  55 CALM      30.01F HX  96
BEAUFORT MCAS  PTSUNNY   86  74  67 VRB3      30.02R HX  94
BEAUFORT ARPT  FAIR      82  72  69 CALM      30.01S
HILTON HEAD IS MOSUNNY   88  75  66 SE6       30.02S HX  97
WALTERBORO     CLOUDY    88  70  55 CALM      30.02S HX  92
ALLENDALE      FAIR      86  73  66 VRB6      30.00S HX  93

...SOUTHERN MIDLANDS AND PEE DEE...

CITY           SKY/WX    TMP DP  RH WIND       PRES   REMARKS
GEORGETOWN     PTSUNNY   81  73  78 SE12      30.03S
KINGSTREE      PTSUNNY   86  70  58 SE3       30.01S HX  90
ORANGEBURG     PTSUNNY   89  72  56 NE8       30.01R HX  96
BARNWELL       PTSUNNY   90  73  58 CALM      30.00S HX  98
AIKEN          PTSUNNY   90  68  48 E6        30.02F HX  93
MANNING        FAIR      86  73  66 SW8       30.00S HX  93
COLUMBIA       MOSUNNY   92  70  48 VRB7      29.99F HX  97
SUMTER         PTSUNNY   82  72  69 NE5       30.00S
FLORENCE       MOSUNNY   88  72  58 E6        30.01F HX  94
MYRTLE BEACH   MOSUNNY   84  70  61 SE12      30.04S
N MYRTLE BEACH SUNNY     84  75  74 SE9       30.02S HX  92

$$

GAZ063-065-086>088-099>101-113>116-118-119-134>141-150-301800-
...SOUTHEAST GEORGIA...

CITY           SKY/WX    TMP DP  RH WIND       PRES   REMARKS
SAVANNAH ARPT  CLOUDY    87  72  60 SW5       30.01F HX  93
HUNTER AAF     CLOUDY    87  76  69 VRB3      29.98F HX  98
FORT STEWART   CLOUDY    87  73  61 SW1       29.98F HX  94
STATESBORO     CLOUDY    88  77  69 SE5       30.00F HX  99
SYLVANIA       MOSUNNY   89  74  62 CALM      30.01F HX  98
CLAXTON        FAIR      88  75  66 S5        29.99F HX  98

...CSRA...CENTRAL AND FAR SOUTHEAST GEORGIA...

CITY           SKY/WX    TMP DP  RH WIND       PRES   REMARKS
THOMSON        SUNNY     90  74  58 S5        30.03S HX  99
AUGUSTA-BUSH   MOSUNNY   89  75  63 E9        29.98S HX  99
AUGUSTA-DANIEL PTSUNNY   89  71  55 S6        30.00S HX  95
SWAINSBORO     FAIR      88  72  58 SW7       30.00F HX  94
VIDALIA        PTSUNNY   86  72  62 S12G17    30.00S THUNDER HX  92
EASTMAN        FAIR      89  63  42 SW6       30.01F
HAZLEHURST     PTSUNNY   88  76  67 SW10G17   29.99S HX 100
ALMA           MOSUNNY   88  73  61 SW7       30.00F HX  95
WAYCROSS       PTSUNNY   89  77  67 W7        30.00S THUNDER HX 102
JESUP          PTSUNNY   90  77  66 CALM      29.99F HX 102
BAXLEY         FAIR      90  77  66 W8        29.99F HX 102
BRUNSWICK      CLOUDY    91  77  62 NW5       30.00F HX 105
SAINT SIMONS   CLOUDY    88  74  63 MISG      30.00F HX  96

$$

SCZ027-028-034-036>038-045-046-048>050-GAZ119-141-301800-
...LAKE AND SUPPLEMENTAL COASTAL OBSERVATIONS...

STATION/POSITION TIME  TEMP    WIND        PRES    WAVE   SWELL
                       AIR SEA DIR/SP/G            HT/PER HT/PER/DIR
                 (UTC) (F)     (DEG/KT/KT) (MB)    (FT/S) (FT/S/D)
WINYAH BAY       1645   81     120/ 10     1016.0S
LAKE MURRAY      1600   80      30/  2/  4 1015.6R
ACE BASIN NERRS  1600   85        CALM     1016.0S
FORT PULASKI     1700   84 85  130/  4/  7 1016.5F
SAPELO ISLAND    1700   89     210/  5     1016.0S

$$

ANZ835-935-AMZ111-154-330-350-352-354-370-450-454-472-301800-
...C-MAN AND BUOY OBSERVATIONS...

STATION/POSITION TIME  TEMP    WIND        PRES    WAVE   SWELL
                       AIR SEA DIR/SP/G            HT/PER HT/PER/DIR
                 (UTC) (F)     (DEG/KT/KT) (MB)    (FT/S) (FT/S/D)
BUOY 41004       1650   79 83  100/  8/ 10 1016.2F   3/ 5   2/180/ 5
BUOY 41008       1650   82 85  150/  4/  4 1016.2F   2/ 8   2/ 80/ 8
FOLLY BEACH CMAN 1700   81     150/  8/  9 1016.7S
CAPERS NEARSHORE 1708   81 84  140/  6/ 10 1016.3F
FRIPP NEARSHORE  1708   81 84              1016.0F


STATION/POSITION TIME  TEMP    WIND        PRES    WAVE   SWELL
                       AIR SEA DIR/SP/G            HT/PER HT/PER/DIR
                 (UTC) (F)     (DEG/KT/KT) (MB)    (FT/S) (FT/S/D)
5E ST. MARYS GA  1701      86                N/A     2/ 8
FRYING PAN BUOY  1700   79 81  150/ 16/ 19 1016.1F
BUOY 41025       1650   81 82  150/ 14/ 16 1016.8F   2/ 8   2/100/ 8
CAPE LOOKOUT NC  1700   80     160/  7/  7 1016.6S
BUOY 41002       1650   75 79  280/  8/ 10 1019.1R   5/ 6   5/230/ 6
BUOY 41010       1620   80 83  270/ 10/ 14 1018.2S
ST AUGUSTINE FL  1700   82 85  150/ 10/ 11 1017.5F


$$




USA.gov is the U.S. government's official web portal to all federal, state and local government web resources and services.